HST
1 20580U 90037B   24144.45917662  .00006800  00000-0  32120-3 0  9994
2 20580  28.4666 150.7666 0002799 126.2798 233.8053 15.17436414673277
ISS (ZARYA)
1 25544U 98067A   24145.31322896  .00023680  00000-0  39557-3 0  9991
2 25544  51.6395  73.6504 0003274 199.0305 302.8059 15.51802432454842
CXO
1 25867U 99040B   24146.70693382  .00000710  00000-0  00000-0 0  9993
2 25867  40.6231 156.0161 8910656 294.8672 359.9653  0.37810235 14485